Regional Weather Roundup
Issued by NWS

Home | Current Version | Previous Version | Text Only | Print | Product List | Glossary On
Versions: 1 2 3 4 5 6 7 8 9 10 11 12 13 14 15 16 17 18 19 20 21 22 23 24 25 26 27 28 29 30 31 32 33 34 35 36 37 38 39 40 41 42 43 44 45 46 47 48 49 50
000
ASUS43 KMPX 011310
RWRMN
WEATHER ROUNDUP FOR MINNESOTA
NATIONAL WEATHER SERVICE TWIN CITIES/CHANHASSEN MN
700 AM CST SUN MAR 01 2015


NOTE: "FAIR" INDICATES FEW OR NO CLOUDS BELOW 12,000 FEET WITH NO
SIGNIFICANT WEATHER AND/OR OBSTRUCTIONS TO VISIBILITY. N/A MEANS
CURRENT SKY AND/OR WEATHER CONDITIONS ARE NOT AVAILABLE.

MNZ060>063-068>070-011400-
   Twin Cities Metro

CITY           SKY/WX    TMP DP  RH WIND       PRES   REMARKS
TWIN CITIES    CLOUDY    16  10  77 SW9       30.23F WCI   4
ST PAUL        CLOUDY    17  12  80 SW5       30.24F WCI  10
CRYSTAL        CLOUDY    16  11  80 SW9       30.21S WCI   4
BLAINE         CLOUDY    18  14  86 SW7       30.20F WCI   8
LAKEVILLE      MOCLDY    12  10  92 SW5       30.22F WCI   4
EDEN PRAIRIE   CLOUDY    15  10  80 SW9       30.22S WCI   3
SOUTH ST PAUL  CLOUDY    18  13  80 SW3       30.23F
LAKE ELMO      FLURRIES  18  14  86 S6        30.22F WCI   9
$$
MNZ001>005-007-008-013>017-022>024-027-028-011400-
   Northwest Minnesota

CITY           SKY/WX    TMP DP  RH WIND       PRES   REMARKS
BEMIDJI        CLEAR     -1  -4  86 SW5       30.11S WCI -11
HALLOCK        CLEAR     -8 -13  77 S7        30.11R WCI -22
ROSEAU         CLEAR     -2  -8  78 SW9       30.08S WCI -18
WARROAD        CLEAR     -2  -8  78 SW8       30.07F WCI -17
THIEF RVR FALL PTCLDY    -2 -11  65 SW7       30.11F WCI -16
CROOKSTON      PTCLDY    -2  -8  78 S7        30.16S WCI -16
FOSSTON        PTCLDY    -8 -11  84 SW8       30.13S WCI -23
DETROIT LAKES  PTCLDY     1  -2  85 SW6       30.16F WCI -10
MOORHEAD       PTCLDY    -2  -6  84 S3        30.21S
PARK RAPIDS    FAIR      -5  -9  83 W9        30.13S WCI -22
MAHNOMEN       FAIR      -6 -11  82 S9        30.15S WCI -23
$$
MNZ006-009>011-018-025>026-011400-
   North Central Minnesota

CITY           SKY/WX    TMP DP  RH WIND       PRES   REMARKS
BAUDETTE       CLEAR     -5  -9  83 SW5       30.06S WCI -16
FLAG ISLAND    CLEAR     -4  -8  84 SW6       30.05S WCI -16
INTL FALLS     CLEAR     -2  -5  87 SW6       30.07R WCI -14
WASKISH        CLEAR      1  -2  85 SW8       30.10R WCI -12
BIG FORK       CLEAR      0  -4  85 SW6       30.09S WCI -12
LONGVILLE      CLEAR      1  -2  85 SW3       30.13F
GRAND RAPIDS   CLEAR      7   3  85 W6        30.09S WCI  -3
CRANE LAKE     LGT SNOW   9   7  92 CALM      30.09S VSB 1
ORR            MOCLDY     7   3  85 CALM      30.05S
COOK           FLURRIES  12   9  85 W9G16     30.07S WCI   0
WALKER         FAIR      -1  -4  85 SW6       30.12S WCI -12
$$
MNZ012-019>021-037-011400-
   Northeast Minnesota

CITY           SKY/WX    TMP DP  RH WIND       PRES   REMARKS
DULUTH         LGT SNOW  12   7  80 SW12      30.09S WCI  -2
ELY            CLOUDY    10   7  85 SW8       30.05F WCI  -1
HIBBING        CLOUDY    13   7  77 W7        30.07S WCI   3
EVELETH        LGT SNOW  12  10  92 SW6       30.07F WCI   3
DULUTH HARBOR  CLOUDY    16   9  73 SW8       30.18S WCI   5
SILVER BAY     PTCLDY     9   3  78 CALM      30.08F
GRAND MARAIS     N/A     15   7  70 VRB3      30.12F
G MARAIS ARPRT LGT SNOW   7   1  78 S3        30.02F
$$
MNZ029>031-032-039>041-046>048-054>057-064-011400-
   West Central Minnesota

CITY           SKY/WX    TMP DP  RH WIND       PRES   REMARKS
FERGUS FALLS   PTCLDY    -2  -6  84 CALM      30.25S
MORRIS         FAIR       1  -2  85 W5        30.23S WCI  -8
ALEXANDRIA     CLEAR      2  -2  83 W10       30.19S WCI -14
ELBOW LAKE     FAIR      -2  -4  88 SW7       30.21S WCI -15
WADENA         CLEAR     -2  -6  84 W7        30.17R WCI -16
APPLETON       PTCLDY     3  -2  78 W8        30.27R WCI -10
BENSON         CLEAR      3  -2  78 NW5       30.24S WCI  -6
ORTONVILLE     PTCLDY     5   0  78 SW5       30.25S WCI  -4
MADISON        CLEAR      7   1  78 W7        30.27S WCI  -5
WILLMAR        FAIR       7   0  72 W7        30.25R WCI  -5
$$
MNZ033>034-036-042>043-049>051-058-059-011400-
   Central Minnesota

CITY           SKY/WX    TMP DP  RH WIND       PRES   REMARKS
ST CLOUD       CLEAR     10   3  73 NW13      30.20R WCI  -5
SAUK CENTRE    FAIR       4   0  83 W7        30.20S WCI  -8
PAYNESVILLE    CLEAR      1  -2  87 SW8       30.22S WCI -13
PINE RIVER     PTCLDY     1   0  92 CALM      30.17F
BRAINERD       PTCLDY     6   1  80 W7        30.16S WCI  -6
STAPLES        PTCLDY    -2  -6  84 W6        30.16F WCI -14
LONG PRAIRIE   FAIR       3   0  85 W8        30.19R WCI -10
LITTLE FALLS   PTCLDY     9   1  72 W5        30.19S WCI   0
LITCHFIELD     FAIR       9   7  92 W3        30.24R
BUFFALO        PTCLDY    12   9  85 SW5       30.22R WCI   4
MAPLE LAKE     PTCLDY    13  11  88 W6        30.22R WCI   4
$$
MNZ037-044-045-052-053-011400-
   East Central Minnesota

CITY           SKY/WX    TMP DP  RH WIND       PRES   REMARKS
PRINCETON      FLURRIES  16  12  86 CALM      30.18S
MORA           CLOUDY    14  10  85 SW3       30.18S
CAMBRIDGE      PTCLDY    16   9  73 SW3       30.17F
RUSH CITY      MOCLDY    15  11  85 SW3       30.18F
MOOSE LAKE     LGT SNOW  12   9  85 CALM      30.13F
HINCKLEY       FLURRIES  14  10  85 CALM      30.16F
CLOQUET        FLURRIES  12   7  79 SW8       30.12R WCI   1
MCGREGOR       PTCLDY    12   7  79 W8        30.14S WCI   1
$$
MNZ071>073-080-081-089-090-097-098-011400-
   Southwest Minnesota

CITY           SKY/WX    TMP DP  RH WIND       PRES   REMARKS
MONTEVIDEO     PTCLDY     7   1  78 NW5       30.27S WCI  -2
GRANITE FALLS  CLEAR      2  -2  82 W6        30.28S WCI  -9
CANBY          CLEAR      7   1  76 W5        30.27S WCI  -1
MARSHALL       MOCLDY     7   0  72 W7        30.27S WCI  -5
REDWOOD FALLS  CLEAR      7   1  76 W8        30.26F WCI  -6
OLIVIA         CLEAR      3   0  85 W8        30.26R WCI -10
PIPESTONE      MOCLDY     9   5  85 W3        30.24R
WINDOM         MOCLDY    12  10  92 W3        30.25R
WORTHINGTON    CLOUDY    23   7  50 W8        30.27R WCI  14
JACKSON        CLOUDY    14  10  85 W6        30.25  WCI   5
TRACY          PTCLDY    11   4  74 W5        30.26R WCI   3
SLAYTON        MOCLDY    10   5  79 CALM      30.25R
$$
MNZ065>067-074>077-082>085-091>093-011400-
   South Central Minnesota

CITY           SKY/WX    TMP DP  RH WIND       PRES   REMARKS
MANKATO        PTCLDY    14   9  79 W7        30.24F WCI   4
NEW ULM        PTCLDY    10   3  72 W10       30.26S WCI  -3
ST JAMES       PTCLDY    16   9  73 W7        30.27S WCI   6
FAIRMONT       MOCLDY    12   9  85 W8        30.25S WCI   1
GLENCOE        PTCLDY    12   9  88 W10       30.23S WCI  -2
FARIBAULT      CLOUDY    16  12  86 SW6       30.24S WCI   7
OWATONNA       CLOUDY    16  12  86 W12       30.23S WCI   3
WASECA         CLOUDY    14  10  85 SW10      30.26S WCI   1
ALBERT LEA     CLOUDY    16  12  86 SW7       30.24F WCI   6
$$
MNZ078>079-086>088-094>096-011400-
   Southeast Minnesota

CITY           SKY/WX    TMP DP  RH WIND       PRES   REMARKS
ROCHESTER      CLOUDY    11   8  88 SW14      30.23F FOG     WCI  -5
RED WING       CLOUDY    16  10  79 SW3       30.24F
STANTON        CLOUDY    17  13  83 W9        30.23S WCI   6
DODGE CENTER   CLOUDY    16  14  93 SW16      30.21F FOG     WCI   0
WINONA         CLOUDY    14  12  92 S3        30.30F
AUSTIN         CLOUDY    12  10  92 SW10      30.25S FOG     WCI  -1
PRESTON        CLOUDY    12  10  92 SW8       30.25F FOG     WCI   1
$$
ABBREVIATIONS USED IN REMARKS
   TC - TEMPERATURES IN CELSIUS
  WCI - WIND CHILL INDEX
   HX - HEAT INDEX
  VSB - VISIBILITY
$$



USA.gov is the U.S. government's official web portal to all federal, state and local government web resources and services.